IRIDIUM 135 (43070 NORAD) Tracking and Keplerian Element Data

This shows tracking and keplerian element data for the satellite.

Feedback or suggestion? Click here.




ElementValue
Catalog43070
NameIRIDIUM 135
Epoch Orbit19696
Epoch Day269.61332798
Epoch Year2021
RAAN322.7381
Inclination86.3973
Eccentricity0.0002598
Argument of Perigee97.0955
Mean Anonmoly263.0537
Mean Motion14.34217198
Decay Rate9E-07
L11 43070U 17083A 21269.61332798 .00000090 00000-0 25188-4 0 9999
L22 43070 86.3973 322.7381 0002598 97.0955 263.0537 14.34217198196964

Live tracking and technical data element details for IRIDIUM 135 (NORAD 43070). IRIDIUM 135 can be tracked NOW for your location showing map with azimuth and elevation plus other details from your city location.

Track the satellite on the map from your city or location and see movement details for azimuth, elevation, latitude, longitude, range, height, and movement on the map or in text.







IsCatalogInMostPopularTable: catalog: 43070, numindb: 535
Update: records affected: 1



GetName: 43070 IRIDIUM 135

Hit Count: updated at: Tue, 28 Sep 2021 16:41:48 GMT